Time,TemperatureF,DewpointF,PressureIn,WindDirection,WindDirectionDegrees,WindSpeedMPH,WindSpeedGustMPH,Humidity,HourlyPrecipIn,Conditions,Clouds,dailyrainin,SoftwareType,DateUTC
2013-04-19 00:00:00,14.9,4.3,29.76,WNW,292,0.0,-999.0,62,-99.99,,,0.00,Acu-Link.com,2013-04-19 06:00:00,
2013-04-19 00:15:00,15.1,4.5,29.74,South,180,0.0,-999.0,62,-99.99,,,0.00,Acu-Link.com,2013-04-19 06:15:00,
2013-04-19 00:30:00,14.9,5.0,29.75,NE,45,0.0,-999.0,64,-99.99,,,0.00,Acu-Link.com,2013-04-19 06:30:00,
2013-04-19 00:46:00,15.6,5.6,29.73,SSW,202,0.0,-999.0,64,-99.99,,,0.00,Acu-Link.com,2013-04-19 06:46:00,
2013-04-19 01:01:00,16.0,5.7,29.73,SSE,157,3.7,-999.0,63,-99.99,,,0.00,Acu-Link.com,2013-04-19 07:01:00,
2013-04-19 01:16:00,16.0,5.3,29.73,East,90,2.7,-999.0,62,-99.99,,,0.00,Acu-Link.com,2013-04-19 07:16:00,
2013-04-19 01:31:00,16.3,4.9,29.73,ESE,112,0.0,-999.0,60,-99.99,,,0.00,Acu-Link.com,2013-04-19 07:31:00,
2013-04-19 01:47:00,16.2,4.8,29.74,East,90,1.7,-999.0,60,-99.99,,,0.00,Acu-Link.com,2013-04-19 07:47:00,
2013-04-19 02:02:00,16.5,5.1,29.72,ESE,112,1.1,-999.0,60,-99.99,,,0.00,Acu-Link.com,2013-04-19 08:02:00,
2013-04-19 02:17:00,16.2,5.5,29.70,WNW,292,2.2,-999.0,62,-99.99,,,0.00,Acu-Link.com,2013-04-19 08:17:00,
2013-04-19 02:32:00,17.1,6.4,29.69,North,0,0.0,-999.0,62,-99.99,,,0.00,Acu-Link.com,2013-04-19 08:32:00,
2013-04-19 02:47:00,17.4,7.0,29.71,NNE,22,0.0,-999.0,63,-99.99,,,0.00,Acu-Link.com,2013-04-19 08:47:00,
2013-04-19 03:02:00,18.0,7.6,29.69,SSW,202,7.8,-999.0,63,-99.99,,,0.00,Acu-Link.com,2013-04-19 09:02:00,
2013-04-19 03:17:00,17.8,7.0,29.69,WNW,292,6.8,-999.0,62,-99.99,,,0.00,Acu-Link.com,2013-04-19 09:17:00,
2013-04-19 03:33:00,17.4,7.0,29.69,ENE,67,8.9,-999.0,63,-99.99,,,0.00,Acu-Link.com,2013-04-19 09:33:00,
2013-04-19 03:48:00,17.2,6.8,29.69,South,180,0.0,-999.0,63,-99.99,,,0.00,Acu-Link.com,2013-04-19 09:48:00,
2013-04-19 04:03:00,17.6,7.2,29.69,SW,225,0.0,-999.0,63,-99.99,,,0.00,Acu-Link.com,2013-04-19 10:03:00,
2013-04-19 04:18:00,17.6,7.2,29.70,North,0,0.0,-999.0,63,-99.99,,,0.00,Acu-Link.com,2013-04-19 10:18:00,
2013-04-19 04:34:00,18.1,7.3,29.70,East,90,0.0,-999.0,62,-99.99,,,0.00,Acu-Link.com,2013-04-19 10:34:00,
2013-04-19 04:49:00,17.6,6.8,29.72,SSW,202,0.0,-999.0,62,-99.99,,,0.00,Acu-Link.com,2013-04-19 10:49:00,
2013-04-19 05:04:00,17.6,7.5,29.70,SSW,202,0.0,-999.0,64,-99.99,,,0.00,Acu-Link.com,2013-04-19 11:04:00,
2013-04-19 05:19:00,17.6,7.9,29.70,NNE,22,0.0,-999.0,65,-99.99,,,0.00,Acu-Link.com,2013-04-19 11:19:00,
2013-04-19 05:35:00,17.8,7.7,29.72,SW,225,0.0,-999.0,64,-99.99,,,0.00,Acu-Link.com,2013-04-19 11:35:00,
2013-04-19 05:50:00,18.0,7.6,29.72,ESE,112,8.3,-999.0,63,-99.99,,,0.00,Acu-Link.com,2013-04-19 11:50:00,
2013-04-19 06:05:00,18.0,7.6,29.70,NE,45,0.0,-999.0,63,-99.99,,,0.00,Acu-Link.com,2013-04-19 12:05:00,
2013-04-19 06:20:00,18.7,8.2,29.70,WSW,247,3.7,-999.0,63,-99.99,,,0.00,Acu-Link.com,2013-04-19 12:20:00,
2013-04-19 06:36:00,19.9,8.3,29.71,West,270,3.7,-999.0,60,-99.99,,,0.00,Acu-Link.com,2013-04-19 12:36:00,
2013-04-19 06:51:00,21.4,9.3,29.70,East,90,3.7,-999.0,59,-99.99,,,0.00,Acu-Link.com,2013-04-19 12:51:00,
2013-04-19 07:06:00,22.6,9.7,29.69,NW,315,0.0,-999.0,57,-99.99,,,0.00,Acu-Link.com,2013-04-19 13:06:00,
2013-04-19 07:22:00,26.2,11.0,29.72,SW,225,0.0,-999.0,52,-99.99,,,0.00,Acu-Link.com,2013-04-19 13:22:00,
2013-04-19 07:37:00,27.7,10.6,29.73,ESE,112,1.7,-999.0,48,-99.99,,,0.00,Acu-Link.com,2013-04-19 13:37:00,
2013-04-19 07:53:00,27.7,10.6,29.74,North,0,0.0,-999.0,48,-99.99,,,0.00,Acu-Link.com,2013-04-19 13:53:00,
2013-04-19 08:08:00,28.9,9.8,29.72,ESE,112,1.1,-999.0,44,-99.99,,,0.00,Acu-Link.com,2013-04-19 14:08:00,
2013-04-19 08:23:00,30.4,10.6,29.75,SSE,157,7.8,-999.0,43,-99.99,,,0.00,Acu-Link.com,2013-04-19 14:23:00,
2013-04-19 08:38:00,26.4,9.4,29.75,ESE,112,1.1,-999.0,48,-99.99,,,0.00,Acu-Link.com,2013-04-19 14:38:00,
2013-04-19 08:54:00,28.2,10.1,29.74,NW,315,0.0,-999.0,46,-99.99,,,0.00,Acu-Link.com,2013-04-19 14:54:00,
2013-04-19 09:09:00,29.5,10.8,29.74,NW,315,3.2,-999.0,45,-99.99,,,0.00,Acu-Link.com,2013-04-19 15:09:00,
2013-04-19 09:24:00,31.8,10.3,29.74,South,180,2.2,-999.0,40,-99.99,,,0.00,Acu-Link.com,2013-04-19 15:24:00,
2013-04-19 09:40:00,29.7,11.0,29.74,South,180,3.2,-999.0,45,-99.99,,,0.00,Acu-Link.com,2013-04-19 15:40:00,
2013-04-19 09:55:00,27.7,10.1,29.74,North,0,6.8,-999.0,47,-99.99,,,0.00,Acu-Link.com,2013-04-19 15:55:00,
2013-04-19 10:10:00,30.0,10.2,29.74,WSW,247,1.7,-999.0,43,-99.99,,,0.00,Acu-Link.com,2013-04-19 16:10:00,
2013-04-19 10:26:00,28.6,10.5,29.75,West,270,0.0,-999.0,46,-99.99,,,0.00,Acu-Link.com,2013-04-19 16:26:00,
2013-04-19 10:41:00,27.3,10.2,29.75,West,270,0.0,-999.0,48,-99.99,,,0.00,Acu-Link.com,2013-04-19 16:41:00,
2013-04-19 10:56:00,27.9,10.3,29.76,WSW,247,0.0,-999.0,47,-99.99,,,0.00,Acu-Link.com,2013-04-19 16:56:00,
2013-04-19 11:11:00,30.4,10.6,29.76,South,180,1.1,-999.0,43,-99.99,,,0.00,Acu-Link.com,2013-04-19 17:11:00,
2013-04-19 11:27:00,39.7,13.0,29.77,West,270,2.7,-999.0,33,-99.99,,,0.00,Acu-Link.com,2013-04-19 17:27:00,
2013-04-19 11:42:00,37.9,11.4,29.77,SW,225,0.0,-999.0,33,-99.99,,,0.00,Acu-Link.com,2013-04-19 17:42:00,
2013-04-19 11:57:00,36.5,10.2,29.77,SE,135,2.2,-999.0,33,-99.99,,,0.00,Acu-Link.com,2013-04-19 17:57:00,
2013-04-19 12:12:00,36.7,12.3,29.75,WNW,292,0.0,-999.0,36,-99.99,,,0.00,Acu-Link.com,2013-04-19 18:12:00,
2013-04-19 12:28:00,34.0,12.2,29.76,SSE,157,4.7,-999.0,40,-99.99,,,0.00,Acu-Link.com,2013-04-19 18:28:00,
2013-04-19 12:43:00,36.3,13.7,29.75,West,270,1.1,-999.0,39,-99.99,,,0.00,Acu-Link.com,2013-04-19 18:43:00,
2013-04-19 12:58:00,33.6,13.0,29.74,SW,225,0.0,-999.0,42,-99.99,,,0.00,Acu-Link.com,2013-04-19 18:58:00,
2013-04-19 13:14:00,34.3,13.6,29.73,West,270,0.0,-999.0,42,-99.99,,,0.00,Acu-Link.com,2013-04-19 19:14:00,
2013-04-19 13:29:00,34.7,14.0,29.73,WNW,292,0.0,-999.0,42,-99.99,,,0.00,Acu-Link.com,2013-04-19 19:29:00,
2013-04-19 13:44:00,32.7,13.2,29.74,West,270,2.2,-999.0,44,-99.99,,,0.01,Acu-Link.com,2013-04-19 19:44:00,
2013-04-19 13:59:00,33.8,14.7,29.72,West,270,2.2,-999.0,45,-99.99,,,0.01,Acu-Link.com,2013-04-19 19:59:00,
2013-04-19 14:15:00,34.9,15.2,29.71,SSE,157,0.0,-999.0,44,-99.99,,,0.01,Acu-Link.com,2013-04-19 20:15:00,
2013-04-19 14:30:00,34.2,15.1,29.71,NE,45,1.1,-999.0,45,-99.99,,,0.01,Acu-Link.com,2013-04-19 20:30:00,
2013-04-19 14:45:00,33.8,14.7,29.70,WNW,292,1.1,-999.0,45,-99.99,,,0.01,Acu-Link.com,2013-04-19 20:45:00,
2013-04-19 15:01:00,34.3,16.7,29.69,WSW,247,1.1,-999.0,48,-99.99,,,0.01,Acu-Link.com,2013-04-19 21:01:00,
2013-04-19 15:16:00,34.5,16.4,29.70,WSW,247,0.0,-999.0,47,-99.99,,,0.01,Acu-Link.com,2013-04-19 21:16:00,
2013-04-19 15:31:00,35.6,15.9,29.68,South,180,0.0,-999.0,44,-99.99,,,0.01,Acu-Link.com,2013-04-19 21:31:00,
2013-04-19 15:47:00,39.7,17.4,29.69,WNW,292,0.0,-999.0,40,-99.99,,,0.01,Acu-Link.com,2013-04-19 21:47:00,
2013-04-19 16:02:00,37.8,17.3,29.68,SW,225,1.7,-999.0,43,-99.99,,,0.01,Acu-Link.com,2013-04-19 22:02:00,
2013-04-19 16:17:00,37.4,17.0,29.67,NNE,22,1.1,-999.0,43,-99.99,,,0.01,Acu-Link.com,2013-04-19 22:17:00,
2013-04-19 16:32:00,39.0,17.9,29.67,NNW,337,2.7,-999.0,42,-99.99,,,0.02,Acu-Link.com,2013-04-19 22:32:00,
2013-04-19 16:48:00,38.8,17.7,29.67,West,270,5.8,-999.0,42,-99.99,,,0.02,Acu-Link.com,2013-04-19 22:48:00,
2013-04-19 17:03:00,39.4,18.8,29.68,ESE,112,2.2,-999.0,43,-99.99,,,0.02,Acu-Link.com,2013-04-19 23:03:00,
2013-04-19 17:18:00,37.0,17.1,29.67,NW,315,0.0,-999.0,44,-99.99,,,0.02,Acu-Link.com,2013-04-19 23:18:00,
2013-04-19 17:33:00,37.8,17.9,29.68,NNW,337,3.7,-999.0,44,-99.99,,,0.02,Acu-Link.com,2013-04-19 23:33:00,
2013-04-19 17:49:00,36.3,17.5,29.68,West,270,7.3,-999.0,46,-99.99,,,0.02,Acu-Link.com,2013-04-19 23:49:00,
2013-04-19 18:04:00,35.1,16.9,29.68,NNW,337,1.1,-999.0,47,-99.99,,,0.02,Acu-Link.com,2013-04-20 00:04:00,
2013-04-19 18:19:00,34.0,17.3,29.67,ESE,112,0.0,-999.0,50,-99.99,,,0.02,Acu-Link.com,2013-04-20 00:19:00,
2013-04-19 18:35:00,34.2,16.6,29.68,West,270,0.0,-999.0,48,-99.99,,,0.03,Acu-Link.com,2013-04-20 00:35:00,
2013-04-19 18:50:00,33.3,15.3,29.67,NNW,337,6.8,-999.0,47,-99.99,,,0.03,Acu-Link.com,2013-04-20 00:50:00,
2013-04-19 19:05:00,32.4,15.4,29.66,West,270,6.3,-999.0,49,-99.99,,,0.03,Acu-Link.com,2013-04-20 01:05:00,
2013-04-19 19:20:00,31.6,15.6,29.66,NW,315,5.8,-999.0,51,-99.99,,,0.03,Acu-Link.com,2013-04-20 01:20:00,
2013-04-19 19:35:00,30.7,15.6,29.65,NNW,337,11.4,-999.0,53,-99.99,,,0.03,Acu-Link.com,2013-04-20 01:35:00,
2013-04-19 19:51:00,30.6,15.5,29.66,SSW,202,1.1,-999.0,53,-99.99,,,0.03,Acu-Link.com,2013-04-20 01:51:00,
2013-04-19 20:06:00,30.2,16.4,29.68,West,270,4.7,-999.0,56,-99.99,,,0.03,Acu-Link.com,2013-04-20 02:06:00,
2013-04-19 20:21:00,30.0,16.2,29.67,WNW,292,0.0,-999.0,56,-99.99,,,0.03,Acu-Link.com,2013-04-20 02:21:00,
2013-04-19 20:36:00,29.7,16.8,29.66,WNW,292,0.0,-999.0,58,-99.99,,,0.03,Acu-Link.com,2013-04-20 02:36:00,
2013-04-19 20:52:00,29.3,17.2,29.67,WNW,292,0.0,-999.0,60,-99.99,,,0.03,Acu-Link.com,2013-04-20 02:52:00,
2013-04-19 21:07:00,28.9,17.5,29.68,WSW,247,1.1,-999.0,62,-99.99,,,0.03,Acu-Link.com,2013-04-20 03:07:00,
2013-04-19 21:22:00,28.9,17.5,29.69,WSW,247,1.1,-999.0,62,-99.99,,,0.03,Acu-Link.com,2013-04-20 03:22:00,
2013-04-19 21:38:00,28.8,17.8,29.71,West,270,0.0,-999.0,63,-99.99,,,0.03,Acu-Link.com,2013-04-20 03:38:00,
2013-04-19 21:53:00,28.6,18.0,29.70,West,270,0.0,-999.0,64,-99.99,,,0.03,Acu-Link.com,2013-04-20 03:53:00,
2013-04-19 22:08:00,28.0,17.8,29.71,South,180,0.0,-999.0,65,-99.99,,,0.03,Acu-Link.com,2013-04-20 04:08:00,
2013-04-19 22:24:00,27.9,18.0,29.70,West,270,0.0,-999.0,66,-99.99,,,0.03,Acu-Link.com,2013-04-20 04:24:00,
2013-04-19 22:39:00,27.7,18.5,29.70,West,270,1.1,-999.0,68,-99.99,,,0.03,Acu-Link.com,2013-04-20 04:39:00,
2013-04-19 22:54:00,27.7,18.9,29.71,NW,315,0.0,-999.0,69,-99.99,,,0.03,Acu-Link.com,2013-04-20 04:54:00,
2013-04-19 23:09:00,27.5,19.4,29.68,WNW,292,0.0,-999.0,71,-99.99,,,0.03,Acu-Link.com,2013-04-20 05:09:00,
2013-04-19 23:25:00,27.3,20.1,29.68,SSW,202,0.0,-999.0,74,-99.99,,,0.03,Acu-Link.com,2013-04-20 05:25:00,
2013-04-19 23:40:00,27.0,20.2,29.68,West,270,0.0,-999.0,75,-99.99,,,0.03,Acu-Link.com,2013-04-20 05:40:00,
2013-04-19 23:55:00,27.0,20.2,29.68,SW,225,0.0,-999.0,75,-99.99,,,0.03,Acu-Link.com,2013-04-20 05:55:00,